ARIANE 5 R/B (49335 NORAD) Tracking and Keplerian Element Data

This shows tracking and keplerian element data for the satellite.

Feedback or suggestion? Click here.




ElementValue
Catalog49335
NameARIANE 5 R/B
Epoch Orbit69
Epoch Day326.90052309
Epoch Year2021
RAAN254.997
Inclination5.6528
Eccentricity0.7251704
Argument of Perigee189.3389
Mean Anonmoly141.0867
Mean Motion2.33025586
Decay Rate5.555E-05
L11 49335U 21095D 21326.90052309 .00005555 00000+0 93452-3 0 9998
L22 49335 5.6528 254.9970 7251704 189.3389 141.0867 2.33025586 691



Live tracking and technical data element details for ARIANE 5 R/B (NORAD 49335). ARIANE 5 R/B can be tracked NOW for your location showing map with azimuth and elevation plus other details from your city location.







IsCatalogInMostPopularTable: catalog: 49335, numindb: 46
Update: records affected: 1



GetName: 49335 ARIANE 5 R/B

Hit Count: updated at: Sun, 11 Jun 2023 00:20:06 GMT